World > North America > United States > Minnesota

Hourly Hackett, MN Regional Weather

Feedback E-mail the Weather

Quick WX

Hackett, MN Weather Maps

°F °C°F °C
Hackett Weather Map
UTC Time: 7/6/2022, 22:48
Your Time:

Hackett, MN Regional Weather

Expires:202207062100;;802823
ASUS43 KMPX 062010
RWRMN 
WEATHER ROUNDUP FOR MINNESOTA
NATIONAL WEATHER SERVICE TWIN CITIES/CHANHASSEN MN
300 PM CDT WED JUL 06 2022


NOTE: "FAIR" INDICATES FEW OR NO CLOUDS BELOW 12,000 FEET WITH NO
SIGNIFICANT WEATHER AND/OR OBSTRUCTIONS TO VISIBILITY. N/A MEANS
CURRENT SKY AND/OR WEATHER CONDITIONS ARE NOT AVAILABLE.


MNZ006-009>011-018-025>026-062100-
   North Central Minnesota   
  
CITY           SKY/WX    TMP DP  RH WIND       PRES   REMARKS
BAUDETTE       SUNNY     80  58  46 S8        30.03F                  
INTL FALLS     PTSUNNY   75  55  49 SE7       30.05F                  
WASKISH        MOSUNNY   79  61  53 SE7       30.04F                  
BIG FORK       MOSUNNY   77  57  50 SE3       30.11F                  
LONGVILLE      PTSUNNY   75  61  60 SE7       30.05F                  
GRAND RAPIDS   MOSUNNY   73  59  61 SE7       30.09F                  
CRANE LAKE     MOSUNNY   73  48  40 S3        30.10F                  
ORR            MOSUNNY   75  55  50 SW6       30.07S                  
COOK           MOSUNNY   75  52  43 S3        30.08S                  
WALKER         CLEAR     73  62  69 NE7       30.06F                  
$$

SKY/WX - Weather  TMP - Temperature  DP - Dew Point  RH - Humidity
WIND - Wind Direction/Speed PRES - Barometric Pressure VSB - Visibility
WCI - Wind Chill Index E13G22 Wind - East Wind 13 mph/Gusts of 22 mph

Trending Headlines

Hackett Radar Loop



Hackett Quick Facts


National Two Day Weather Forecast


E-mail the Hackett Weather Forecast

Voice your opinion or tell us about page issues...